map of IPN home
IPN - Airport
Location
City:  Ipatinga/Santana Do Paraiso, Minas Gerais, Brazil
Name:Usiminas
ICAO:SBIP
IATA:IPN

Details
Type:Airport (Aerodrome, Airfield)
Latitude:1928'15"S (-19.470721)
Longitude:4229'15"W (-42.487582)
Datum:WGS 1984
Elevation:784 ft (239 m)
Variation:23.28W (WMM2015v2 magnetic declination)
-0.06 annual change
Runways:1
Longest:6562 × 148 ft (2000 × 45 m), paved

Time
Time Zone:UTC-3 (DST-2)
Local Time:

Weather
METAR:SBIP 041400Z 19006KT 9999 SCT025 32/19 Q1014

Related Locations
Nearby:
Farthest:IWO: 11995 mi / 19305 km
Iwo Jima [Iwo Jima AB], Iwo Jima Island, 13, JP

Find:

   beyond  
but within

Other Information
Maps:
NOTAMs:
Links:
Sources:

  
  • flag of Brazil
  • flag of Minas Gerais
  

Sectional Chart

Flight Planning
at skyvector.com

Satellite Image

Google Maps Satellite view

 

Copyright © 2004-2019 Karl L. Swartz. All rights reserved.
The Great Circle Mapper name and logo are trademarks of the Great Circle Mapper.
All other trademarks mentioned herein belong to their respective owners.
Please see credits for attibutions and further copyright information.

  Follow gcmap on Facebook Follow gcmap on Twitter GCmap on LinkedIn

hCard Microformat

Geo Microformat